Time,TemperatureF,DewpointF,PressureIn,WindDirection,WindDirectionDegrees,WindSpeedMPH,WindSpeedGustMPH,Humidity,HourlyPrecipIn,Conditions,Clouds,dailyrainin,SoftwareType,DateUTC
2013-02-19 00:10:00,46.2,43.0,29.86,ESE,119,1.0,5.0,89,0.11,,,0.47,weatherlink.com 1.10,2013-02-19 06:10:00,
2013-02-19 00:25:00,46.1,43.0,29.84,SSW,202,0.0,7.0,89,0.06,,,0.47,weatherlink.com 1.10,2013-02-19 06:25:00,
2013-02-19 00:40:00,46.7,44.0,29.84,WSW,251,2.0,6.0,89,0.03,,,0.47,weatherlink.com 1.10,2013-02-19 06:40:00,
2013-02-19 00:55:00,47.3,44.0,29.83,SW,222,0.0,7.0,89,0.00,,,0.47,weatherlink.com 1.10,2013-02-19 06:55:00,
2013-02-19 01:10:00,47.4,44.0,29.84,West,269,2.0,3.0,88,0.00,,,0.47,weatherlink.com 1.10,2013-02-19 07:10:00,
2013-02-19 01:25:00,47.5,45.0,29.84,West,259,2.0,7.0,89,0.01,,,0.48,weatherlink.com 1.10,2013-02-19 07:25:00,
2013-02-19 03:51:00,44.1,41.0,29.89,West,259,5.0,12.0,87,0.02,,,0.09,weatherlink.com 1.10,2013-02-19 09:51:00,
2013-02-19 04:10:00,43.2,40.0,29.91,North,9,2.0,10.0,88,0.01,,,0.09,weatherlink.com 1.10,2013-02-19 10:10:00,
2013-02-19 04:25:00,42.7,39.0,29.92,West,259,3.0,14.0,88,0.01,,,0.09,weatherlink.com 1.10,2013-02-19 10:25:00,
2013-02-19 04:40:00,42.4,39.0,29.93,NNW,331,6.0,14.0,88,0.00,,,0.09,weatherlink.com 1.10,2013-02-19 10:40:00,
2013-02-19 04:55:00,42.3,39.0,29.94,WSW,247,4.0,6.0,88,0.00,,,0.09,weatherlink.com 1.10,2013-02-19 10:55:00,
2013-02-19 05:10:00,42.2,39.0,29.95,WNW,300,6.0,8.0,88,0.00,,,0.09,weatherlink.com 1.10,2013-02-19 11:10:00,
2013-02-19 05:25:00,42.2,39.0,29.96,WSW,250,3.0,13.0,87,0.00,,,0.09,weatherlink.com 1.10,2013-02-19 11:25:00,
2013-02-19 05:40:00,42.3,39.0,29.97,West,281,4.0,9.0,87,0.00,,,0.09,weatherlink.com 1.10,2013-02-19 11:40:00,
2013-02-19 05:56:00,42.2,38.0,29.97,WSW,257,6.0,12.0,84,0.00,,,0.09,weatherlink.com 1.10,2013-02-19 11:56:00,
2013-02-19 06:11:00,41.9,37.0,29.97,WSW,254,3.0,7.0,83,0.00,,,0.09,weatherlink.com 1.10,2013-02-19 12:11:00,
2013-02-19 06:26:00,41.3,36.0,29.98,West,265,5.0,11.0,82,0.00,,,0.09,weatherlink.com 1.10,2013-02-19 12:26:00,
2013-02-19 06:41:00,41.0,35.0,29.99,West,261,8.0,15.0,80,0.00,,,0.09,weatherlink.com 1.10,2013-02-19 12:41:00,
2013-02-19 06:56:00,40.9,35.0,30.00,NW,311,4.0,19.0,80,0.00,,,0.09,weatherlink.com 1.10,2013-02-19 12:56:00,
2013-02-19 07:11:00,40.7,34.0,30.01,West,277,8.0,14.0,78,0.00,,,0.09,weatherlink.com 1.10,2013-02-19 13:11:00,
2013-02-19 07:26:00,40.5,34.0,30.02,WSW,247,5.0,17.0,77,0.00,,,0.09,weatherlink.com 1.10,2013-02-19 13:26:00,
2013-02-19 07:41:00,40.5,34.0,30.03,West,261,15.0,19.0,78,0.00,,,0.09,weatherlink.com 1.10,2013-02-19 13:41:00,
2013-02-19 07:56:00,40.8,34.0,30.03,WNW,301,6.0,13.0,77,0.00,,,0.09,weatherlink.com 1.10,2013-02-19 13:56:00,
2013-02-19 08:11:00,40.6,34.0,30.05,SW,219,6.0,15.0,78,0.00,,,0.09,weatherlink.com 1.10,2013-02-19 14:11:00,
2013-02-19 08:26:00,40.4,33.0,30.05,SW,232,5.0,16.0,74,0.00,,,0.09,weatherlink.com 1.10,2013-02-19 14:26:00,
2013-02-19 08:41:00,40.5,32.0,30.05,WNW,286,10.0,12.0,71,0.00,,,0.09,weatherlink.com 1.10,2013-02-19 14:41:00,
2013-02-19 08:56:00,39.6,30.0,30.06,SW,234,8.0,16.0,69,0.00,,,0.09,weatherlink.com 1.10,2013-02-19 14:56:00,
2013-02-19 09:11:00,40.1,30.0,30.06,SSW,213,8.0,16.0,67,0.00,,,0.09,weatherlink.com 1.10,2013-02-19 15:11:00,
2013-02-19 09:26:00,40.6,29.0,30.07,NW,304,10.0,18.0,64,0.00,,,0.09,weatherlink.com 1.10,2013-02-19 15:26:00,
2013-02-19 09:41:00,41.0,28.0,30.06,SW,234,8.0,14.0,61,0.00,,,0.09,weatherlink.com 1.10,2013-02-19 15:41:00,
2013-02-19 09:56:00,41.7,27.0,30.07,WSW,240,6.0,15.0,57,0.00,,,0.09,weatherlink.com 1.10,2013-02-19 15:56:00,
2013-02-19 10:11:00,42.2,27.0,30.07,WNW,283,7.0,15.0,56,0.00,,,0.09,weatherlink.com 1.10,2013-02-19 16:11:00,
2013-02-19 10:26:00,42.6,27.0,30.08,West,259,12.0,15.0,54,0.00,,,0.09,weatherlink.com 1.10,2013-02-19 16:26:00,
2013-02-19 10:41:00,42.9,25.0,30.08,West,261,14.0,16.0,49,0.00,,,0.09,weatherlink.com 1.10,2013-02-19 16:41:00,
2013-02-19 10:56:00,43.1,26.0,30.08,West,263,9.0,19.0,51,0.00,,,0.09,weatherlink.com 1.10,2013-02-19 16:56:00,
2013-02-19 11:11:00,44.2,27.0,30.08,West,273,11.0,14.0,52,0.00,,,0.09,weatherlink.com 1.10,2013-02-19 17:11:00,
2013-02-19 11:26:00,44.6,26.0,30.08,West,274,8.0,20.0,48,0.00,,,0.09,weatherlink.com 1.10,2013-02-19 17:26:00,
2013-02-19 11:41:00,45.0,26.0,30.08,SW,215,4.0,18.0,48,0.00,,,0.09,weatherlink.com 1.10,2013-02-19 17:41:00,
2013-02-19 11:56:00,46.1,27.0,30.07,West,270,9.0,13.0,48,0.00,,,0.09,weatherlink.com 1.10,2013-02-19 17:56:00,
2013-02-19 12:11:00,46.1,28.0,30.07,WNW,294,5.0,16.0,49,0.00,,,0.09,weatherlink.com 1.10,2013-02-19 18:11:00,
2013-02-19 12:26:00,46.8,27.0,30.07,West,276,9.0,16.0,46,0.00,,,0.09,weatherlink.com 1.10,2013-02-19 18:26:00,
2013-02-19 12:41:00,46.8,25.0,30.07,SW,226,15.0,21.0,43,0.00,,,0.09,weatherlink.com 1.10,2013-02-19 18:41:00,
2013-02-19 12:56:00,47.3,25.0,30.07,WSW,237,8.0,18.0,42,0.00,,,0.09,weatherlink.com 1.10,2013-02-19 18:56:00,
2013-02-19 13:11:00,47.2,24.0,30.07,West,275,15.0,20.0,40,0.00,,,0.09,weatherlink.com 1.10,2013-02-19 19:11:00,
2013-02-19 13:26:00,47.6,22.0,30.07,NNW,329,8.0,25.0,36,0.00,,,0.09,weatherlink.com 1.10,2013-02-19 19:26:00,
2013-02-19 13:41:00,47.5,23.0,30.07,West,259,11.0,17.0,38,0.00,,,0.09,weatherlink.com 1.10,2013-02-19 19:41:00,
2013-02-19 13:56:00,47.8,23.0,30.07,WSW,251,6.0,15.0,38,0.00,,,0.09,weatherlink.com 1.10,2013-02-19 19:56:00,
2013-02-19 14:11:00,48.7,23.0,30.08,WNW,282,13.0,16.0,37,0.00,,,0.09,weatherlink.com 1.10,2013-02-19 20:11:00,
2013-02-19 14:26:00,48.0,21.0,30.08,West,265,6.0,21.0,35,0.00,,,0.09,weatherlink.com 1.10,2013-02-19 20:26:00,
2013-02-19 14:41:00,47.7,22.0,30.08,WNW,288,11.0,19.0,36,0.00,,,0.09,weatherlink.com 1.10,2013-02-19 20:41:00,
2013-02-19 14:57:00,48.4,22.0,30.09,WNW,299,6.0,28.0,35,0.00,,,0.09,weatherlink.com 1.10,2013-02-19 20:57:00,
2013-02-19 15:12:00,48.0,21.0,30.09,West,278,12.0,22.0,34,0.00,,,0.09,weatherlink.com 1.10,2013-02-19 21:12:00,
2013-02-19 15:27:00,48.3,22.0,30.10,WSW,244,2.0,18.0,35,0.00,,,0.09,weatherlink.com 1.10,2013-02-19 21:27:00,
2013-02-19 15:42:00,47.6,20.0,30.10,WNW,288,13.0,16.0,33,0.00,,,0.09,weatherlink.com 1.10,2013-02-19 21:42:00,
2013-02-19 15:57:00,47.5,20.0,30.11,West,275,5.0,16.0,33,0.00,,,0.09,weatherlink.com 1.10,2013-02-19 21:57:00,
2013-02-19 16:12:00,47.3,20.0,30.11,WSW,246,6.0,15.0,34,0.00,,,0.09,weatherlink.com 1.10,2013-02-19 22:12:00,
2013-02-19 16:27:00,46.8,20.0,30.12,WSW,254,13.0,19.0,35,0.00,,,0.09,weatherlink.com 1.10,2013-02-19 22:27:00,
2013-02-19 16:42:00,46.0,20.0,30.12,NW,317,3.0,11.0,36,0.00,,,0.09,weatherlink.com 1.10,2013-02-19 22:42:00,
2013-02-19 16:57:00,45.4,19.0,30.13,SW,220,5.0,11.0,35,0.00,,,0.09,weatherlink.com 1.10,2013-02-19 22:57:00,
2013-02-19 17:12:00,44.9,20.0,30.14,West,275,5.0,13.0,37,0.00,,,0.09,weatherlink.com 1.10,2013-02-19 23:12:00,
2013-02-19 17:27:00,43.8,19.0,30.15,WSW,253,6.0,12.0,37,0.00,,,0.09,weatherlink.com 1.10,2013-02-19 23:27:00,
2013-02-19 17:42:00,42.8,19.0,30.16,WSW,244,4.0,6.0,39,0.00,,,0.09,weatherlink.com 1.10,2013-02-19 23:42:00,
2013-02-19 17:57:00,42.0,20.0,30.16,WNW,302,3.0,12.0,41,0.00,,,0.09,weatherlink.com 1.10,2013-02-19 23:57:00,
2013-02-19 18:12:00,41.5,20.0,30.17,WNW,284,5.0,13.0,42,0.00,,,0.09,weatherlink.com 1.10,2013-02-20 00:12:00,
2013-02-19 18:27:00,41.2,20.0,30.17,WNW,286,3.0,10.0,42,0.00,,,0.09,weatherlink.com 1.10,2013-02-20 00:27:00,
2013-02-19 18:42:00,40.7,20.0,30.17,West,269,3.0,8.0,44,0.00,,,0.09,weatherlink.com 1.10,2013-02-20 00:42:00,
2013-02-19 18:57:00,40.2,20.0,30.17,West,281,1.0,4.0,44,0.00,,,0.09,weatherlink.com 1.10,2013-02-20 00:57:00,
2013-02-19 19:12:00,39.5,20.0,30.17,WNW,284,0.0,2.0,46,0.00,,,0.09,weatherlink.com 1.10,2013-02-20 01:12:00,
2013-02-19 19:27:00,38.7,21.0,30.17,WSW,245,0.0,1.0,50,0.00,,,0.09,weatherlink.com 1.10,2013-02-20 01:27:00,
2013-02-19 19:42:00,37.7,21.0,30.17,SW,214,0.0,3.0,52,0.00,,,0.09,weatherlink.com 1.10,2013-02-20 01:42:00,
2013-02-19 19:57:00,36.8,24.0,30.17,SW,214,0.0,0.0,59,0.00,,,0.09,weatherlink.com 1.10,2013-02-20 01:57:00,
2013-02-19 20:12:00,35.6,24.0,30.18,SW,214,0.0,0.0,62,0.00,,,0.09,weatherlink.com 1.10,2013-02-20 02:12:00,
2013-02-19 20:27:00,34.4,25.0,30.18,SW,214,0.0,0.0,68,0.00,,,0.09,weatherlink.com 1.10,2013-02-20 02:27:00,
2013-02-19 20:42:00,33.8,23.0,30.18,SW,214,0.0,0.0,64,0.00,,,0.09,weatherlink.com 1.10,2013-02-20 02:42:00,
2013-02-19 20:57:00,33.2,24.0,30.19,SW,214,0.0,0.0,68,0.00,,,0.09,weatherlink.com 1.10,2013-02-20 02:57:00,
2013-02-19 21:12:00,32.6,25.0,30.19,SW,214,0.0,0.0,74,0.00,,,0.09,weatherlink.com 1.10,2013-02-20 03:12:00,
2013-02-19 21:27:00,31.9,25.0,30.20,SW,214,0.0,0.0,75,0.00,,,0.09,weatherlink.com 1.10,2013-02-20 03:27:00,
2013-02-19 21:42:00,31.3,25.0,30.21,SW,214,0.0,0.0,76,0.00,,,0.09,weatherlink.com 1.10,2013-02-20 03:42:00,
2013-02-19 21:57:00,31.1,24.0,30.21,SW,214,0.0,0.0,76,0.00,,,0.09,weatherlink.com 1.10,2013-02-20 03:57:00,
2013-02-19 22:12:00,31.0,24.0,30.21,SW,214,0.0,0.0,75,0.00,,,0.09,weatherlink.com 1.10,2013-02-20 04:12:00,
2013-02-19 22:27:00,30.6,24.0,30.21,SW,214,0.0,1.0,75,0.00,,,0.09,weatherlink.com 1.10,2013-02-20 04:27:00,
2013-02-19 22:42:00,30.5,24.0,30.20,SW,214,0.0,0.0,76,0.00,,,0.09,weatherlink.com 1.10,2013-02-20 04:42:00,
2013-02-19 22:57:00,30.8,22.0,30.20,SW,214,0.0,1.0,71,0.00,,,0.09,weatherlink.com 1.10,2013-02-20 04:57:00,
2013-02-19 23:12:00,31.4,22.0,30.20,SW,214,0.0,1.0,68,0.00,,,0.09,weatherlink.com 1.10,2013-02-20 05:12:00,
2013-02-19 23:27:00,32.1,22.0,30.20,SW,214,0.0,2.0,66,0.00,,,0.09,weatherlink.com 1.10,2013-02-20 05:27:00,
2013-02-19 23:43:00,32.3,20.0,30.21,SW,219,0.0,2.0,62,0.00,,,0.09,weatherlink.com 1.10,2013-02-20 05:43:00,
2013-02-19 23:58:00,33.2,20.0,30.23,SW,229,1.0,3.0,59,0.00,,,0.09,weatherlink.com 1.10,2013-02-20 05:58:00,